FENGYUN 1C DEB, 37900

Orbit data source: Space-Track

FENGYUN 1C DEB, 37900 is space debris in SSO originally from a launch on Mon, 10 May 1999 UTC launched from the Taiyaun Space Center, China (TSC). Fengyun 1C debris stems from the Chinese weather satellite Fengyun-1C, which was intentionally destroyed by a Chinese anti-satellite missile in 2007. This event dramatically increased the amount of space debris, with thousands of trackable fragments posing hazards to satellites and human spaceflight. The Fengyun 1C debris cloud has become a focal point in discussions about space sustainability and the need for international regulations to prevent the creation of new debris.

Loading next visibility...
Identifier
37900, 1999-025EMZ
Orbit
SSO
Country
Flag of CNCN / PRC
Related business
Manufacturer
Unknown
Mission
Spacecraft
Bus & Motor
Unknown
Mass
Unknown
Launch date (UTC)
1999-05-10 (27 years ago)
Launch vehicle
Unknown
Launch site
Taiyaun Space Center, China (TSC)
Object type
Payload
Rocket body
Debris
Shape & HBR
Unknown shape, 0.1 m
Radar Cross Section
Small (<0.1 m²)

Expand to show TLE details & history
Last TLE update: 3 days ago

TLE from 3 days ago
0 FENGYUN 1C DEB
1 37900U 99025EMZ 26143.12746565  .00003310  00000-0  17360-2 0  9992
2 37900 102.3005 280.9354 0211588 196.9221 162.4800 14.04464220620790
Epoch: 2026-05-23T03:03Z
TLE epoch observation values (Epoch: 2026-05-23T03:03:33.032Z)
Latitude
-0.00001°
Longitude
-5.70065°
Altitude
1,027.864 km
Speed
7.263 km/s
True Right ascension
18h 43m 44s
True Declination
0° 00' 00"
Sunlit
Object was in full shadow at epoch
Visualization orbit readout
Latitude
Unknown
Longitude
Unknown
Altitude
Unknown
Speed
Unknown
Apparent Right ascension
Unknown
Apparent Declination
Unknown
Sunlit
N/A
Visualization observer readout
Local Sidereal Time
15:39:13
Azimuth
Unknown
Elevation
Unknown
Doppler factor
Unknown
Orbital elements
Apogee altitude
1,029.243 km
Perigee altitude
722.276 km
Semi-major axis
7,253.896 km
Eccentricity
0.02116
Inclination
102.3005°
RAAN
280.9354°
Arg. of periapsis
196.9221°
True anomaly
163.19191°
Mean anomaly
162.48°
Eccentric anomaly
162.83773°
Mean motion
3.51306 °/min
Orbital period
102.47 mins
BSTAR
0.001736
Loading maneuver chart data...
Computing Atmospheric mass density...
Loading historical data...
Loading historical data...
Loading historical data...
Loading historical data...
Loading historical data...
Loading historical data...
Loading historical data...

Documentation

Showing up to 5 results
|